| time (UTC) | temp F | wind direction | speed knots | gust knots | rain 1hr in | rain 24hr in | rain mn in | humidity % | barometer mb |
| 20260904210017 | 88 | 338 | 4.3 | 9.6 | 0.00 | 0.00 | 0.00 | 47 | 1010.2 |
| 20260904205517 | 88 | 315 | 2.6 | 6.1 | 0.00 | 0.00 | 0.00 | 48 | 1010.2 |
| 20260904205018 | 88 | 315 | 4.3 | 11.3 | 0.00 | 0.00 | 0.00 | 47 | 1010.2 |
| 20260904204517 | 88 | 315 | 5.2 | 10.4 | 0.00 | 0.00 | 0.00 | 47 | 1010.2 |
| 20260904204017 | 88 | 248 | 5.2 | 12.2 | 0.00 | 0.00 | 0.00 | 47 | 1010.4 |
| 20260904203537 | 88 | 338 | 2.6 | 5.2 | 0.00 | 0.00 | 0.00 | 47 | 1010.4 |
| 20260904203037 | 88 | 338 | 3.5 | 8.7 | 0.00 | 0.00 | 0.00 | 47 | 1010.4 |
| 20260904202518 | 88 | 315 | 3.5 | 10.4 | 0.00 | 0.00 | 0.00 | 47 | 1010.4 |
| 20260904202017 | 88 | 293 | 2.6 | 7.0 | 0.00 | 0.00 | 0.00 | 47 | 1010.4 |
| 20260904201517 | 88 | 338 | 5.2 | 10.4 | 0.00 | 0.00 | 0.00 | 47 | 1010.3 |
| 20260904201017 | 88 | 315 | 4.3 | 10.4 | 0.00 | 0.00 | 0.00 | 48 | 1010.4 |
| 20260904200518 | 88 | 315 | 4.3 | 9.6 | 0.00 | 0.00 | 0.00 | 47 | 1010.6 |
| 20260904200036 | 88 | 315 | 5.2 | 11.3 | 0.00 | 0.00 | 0.00 | 47 | 1010.7 |
| 20260904195517 | 88 | 315 | 3.5 | 11.3 | 0.00 | 0.00 | 0.00 | 47 | 1010.8 |
| 20260904195017 | 88 | 270 | 2.6 | 7.0 | 0.00 | 0.00 | 0.00 | 47 | 1010.8 |
| 20260904194557 | 88 | 315 | 3.5 | 8.7 | 0.00 | 0.00 | 0.00 | 47 | 1010.9 |
| 20260904194018 | 88 | 315 | 4.3 | 9.6 | 0.00 | 0.00 | 0.00 | 47 | 1010.9 |
| 20260904193517 | 88 | 315 | 4.3 | 9.6 | 0.00 | 0.00 | 0.00 | 48 | 1010.9 |
| 20260904193017 | 88 | 338 | 4.3 | 8.7 | 0.00 | 0.00 | 0.00 | 47 | 1010.9 |
| 20260904192517 | 88 | 293 | 3.5 | 9.6 | 0.00 | 0.00 | 0.00 | 47 | 1011.0 |
| 20260904192017 | 88 | 315 | 5.2 | 11.3 | 0.00 | 0.00 | 0.00 | 47 | 1011.0 |
| 20260904191640 | 87 | 0 | 4.3 | 9.6 | 0.00 | 0.00 | 0.00 | 47 | 1011.0 |
| 20260904191017 | 88 | 0 | 5.2 | 11.3 | 0.00 | 0.00 | 0.00 | 46 | 1011.1 |
| 20260904190517 | 88 | 338 | 3.5 | 9.6 | 0.00 | 0.00 | 0.00 | 47 | 1011.1 |
| 20260904190019 | 88 | 315 | 4.3 | 11.3 | 0.00 | 0.00 | 0.00 | 46 | 1011.2 |
| 20260904185518 | 88 | 293 | 4.3 | 9.6 | 0.00 | 0.00 | 0.00 | 47 | 1011.3 |
| 20260904185017 | 88 | 315 | 6.1 | 10.4 | 0.00 | 0.00 | 0.00 | 46 | 1011.2 |
| 20260904184517 | 88 | 315 | 3.5 | 10.4 | 0.00 | 0.00 | 0.00 | 47 | 1011.2 |
| 20260904184016 | 88 | 0 | 4.3 | 7.8 | 0.00 | 0.00 | 0.00 | 47 | 1011.2 |
| 20260904183517 | 88 | 315 | 4.3 | 10.4 | 0.00 | 0.00 | 0.00 | 49 | 1011.2 |
| 20260904183018 | 88 | 315 | 5.2 | 10.4 | 0.00 | 0.00 | 0.00 | 49 | 1011.3 |
| 20260904182517 | 88 | 315 | 5.2 | 11.3 | 0.00 | 0.00 | 0.00 | 47 | 1011.3 |
| 20260904182016 | 88 | 315 | 4.3 | 8.7 | 0.00 | 0.00 | 0.00 | 48 | 1011.2 |
| 20260904181538 | 88 | 315 | 5.2 | 9.6 | 0.00 | 0.00 | 0.00 | 46 | 1011.2 |
| 20260904181016 | 88 | 315 | 4.3 | 9.6 | 0.00 | 0.00 | 0.00 | 46 | 1011.3 |
| 20260904180536 | 88 | 293 | 5.2 | 12.2 | 0.00 | 0.00 | 0.00 | 47 | 1011.3 |
| 20260904180016 | 88 | 293 | 3.5 | 9.6 | 0.00 | 0.00 | 0.00 | 47 | 1011.2 |
| 20260904175538 | 87 | 0 | 6.1 | 12.2 | 0.00 | 0.00 | 0.00 | 47 | 1011.3 |
| 20260904175016 | 88 | 315 | 5.2 | 12.2 | 0.00 | 0.00 | 0.00 | 47 | 1011.3 |
| 20260904174516 | 87 | 315 | 6.1 | 13.0 | 0.00 | 0.00 | 0.00 | 47 | 1011.3 |
| 20260904174018 | 87 | 315 | 5.2 | 9.6 | 0.00 | 0.00 | 0.00 | 49 | 1011.3 |
| 20260904173537 | 87 | 315 | 5.2 | 9.6 | 0.00 | 0.00 | 0.00 | 50 | 1011.3 |
| 20260904173016 | 87 | 315 | 5.2 | 11.3 | 0.00 | 0.00 | 0.00 | 50 | 1011.2 |
| 20260904172516 | 87 | 0 | 3.5 | 11.3 | 0.00 | 0.00 | 0.00 | 50 | 1011.3 |
| 20260904172016 | 86 | 315 | 6.1 | 12.2 | 0.00 | 0.00 | 0.00 | 50 | 1011.2 |
| 20260904171537 | 87 | 315 | 5.2 | 12.2 | 0.00 | 0.00 | 0.00 | 50 | 1011.2 |
| 20260904171016 | 86 | 315 | 6.1 | 12.2 | 0.00 | 0.00 | 0.00 | 50 | 1011.3 |
| 20260904170516 | 86 | 338 | 5.2 | 12.2 | 0.00 | 0.00 | 0.00 | 51 | 1011.4 |
| 20260904170017 | 86 | 338 | 5.2 | 10.4 | 0.00 | 0.00 | 0.00 | 52 | 1011.3 |
| 20260904165516 | 87 | 338 | 4.3 | 11.3 | 0.00 | 0.00 | 0.00 | 51 | 1011.5 |
| 20260904165017 | 87 | 0 | 3.5 | 9.6 | 0.00 | 0.00 | 0.00 | 52 | 1011.3 |
| 20260904164517 | 87 | 315 | 5.2 | 9.6 | 0.00 | 0.00 | 0.00 | 52 | 1011.3 |
| 20260904164018 | 87 | 315 | 5.2 | 9.6 | 0.00 | 0.00 | 0.00 | 51 | 1011.3 |
| 20260904163516 | 87 | 0 | 4.3 | 9.6 | 0.00 | 0.00 | 0.00 | 52 | 1011.4 |
| 20260904163016 | 87 | 315 | 4.3 | 11.3 | 0.00 | 0.00 | 0.00 | 51 | 1011.3 |
| 20260904162517 | 87 | 315 | 2.6 | 7.0 | 0.00 | 0.00 | 0.00 | 52 | 1011.4 |
| 20260904162016 | 87 | 338 | 3.5 | 7.8 | 0.00 | 0.00 | 0.00 | 51 | 1011.4 |
| 20260904161516 | 87 | 0 | 4.3 | 9.6 | 0.00 | 0.00 | 0.00 | 52 | 1011.4 |
| 20260904161016 | 87 | 0 | 4.3 | 8.7 | 0.00 | 0.00 | 0.00 | 52 | 1011.3 |
| 20260904160516 | 87 | 315 | 4.3 | 9.6 | 0.00 | 0.00 | 0.00 | 52 | 1011.4 |
| 20260904160016 | 86 | 338 | 4.3 | 10.4 | 0.00 | 0.00 | 0.00 | 52 | 1011.4 |
| 20260904155516 | 86 | 315 | 5.2 | 9.6 | 0.00 | 0.00 | 0.00 | 53 | 1011.5 |
| 20260904155016 | 86 | 338 | 4.3 | 7.8 | 0.00 | 0.00 | 0.00 | 53 | 1011.5 |
| 20260904154516 | 86 | 338 | 4.3 | 10.4 | 0.00 | 0.00 | 0.00 | 52 | 1011.6 |
| 20260904154016 | 86 | 315 | 4.3 | 9.6 | 0.00 | 0.00 | 0.00 | 53 | 1011.7 |
| 20260904153536 | 86 | 315 | 6.1 | 13.0 | 0.00 | 0.00 | 0.00 | 53 | 1011.8 |
| 20260904153058 | 86 | 315 | 5.2 | 13.0 | 0.00 | 0.00 | 0.00 | 53 | 1011.7 |
| 20260904152538 | 86 | 315 | 5.2 | 11.3 | 0.00 | 0.00 | 0.00 | 54 | 1011.8 |
| 20260904152016 | 86 | 315 | 3.5 | 9.6 | 0.00 | 0.00 | 0.00 | 55 | 1011.8 |
| 20260904151516 | 86 | 315 | 4.3 | 10.4 | 0.00 | 0.00 | 0.00 | 55 | 1011.9 |
| 20260904151016 | 86 | 338 | 3.5 | 9.6 | 0.00 | 0.00 | 0.00 | 55 | 1011.9 |
| 20260904150517 | 86 | 315 | 2.6 | 6.1 | 0.00 | 0.00 | 0.00 | 58 | 1011.8 |
| 20260904150017 | 86 | 315 | 3.5 | 8.7 | 0.00 | 0.00 | 0.00 | 58 | 1011.9 |
| 20260904145516 | 86 | 270 | 1.7 | 5.2 | 0.00 | 0.00 | 0.00 | 59 | 1011.8 |
| 20260904145017 | 85 | 315 | 4.3 | 8.7 | 0.00 | 0.00 | 0.00 | 59 | 1011.8 |
| 20260904144517 | 85 | 315 | 3.5 | 9.6 | 0.00 | 0.00 | 0.00 | 60 | 1011.9 |
| 20260904144017 | 85 | 0 | 3.5 | 7.0 | 0.00 | 0.00 | 0.00 | 61 | 1011.8 |
| 20260904143517 | 85 | 23 | 1.7 | 6.1 | 0.00 | 0.00 | 0.00 | 62 | 1011.9 |
| 20260904143016 | 85 | 338 | 1.7 | 6.1 | 0.00 | 0.00 | 0.00 | 62 | 1011.8 |
| 20260904142516 | 84 | 338 | 2.6 | 7.8 | 0.00 | 0.00 | 0.00 | 62 | 1011.8 |
| 20260904142016 | 84 | 0 | 3.5 | 9.6 | 0.00 | 0.00 | 0.00 | 63 | 1011.8 |
| 20260904141517 | 83 | 0 | 3.5 | 8.7 | 0.00 | 0.00 | 0.00 | 64 | 1011.6 |
| 20260904141016 | 83 | 0 | 2.6 | 7.0 | 0.00 | 0.00 | 0.00 | 65 | 1011.6 |
| 20260904140516 | 83 | 338 | 3.5 | 7.8 | 0.00 | 0.00 | 0.00 | 66 | 1011.7 |
| 20260904140016 | 83 | 293 | 4.3 | 8.7 | 0.00 | 0.00 | 0.00 | 66 | 1011.8 |
| 20260904135637 | 83 | 315 | 2.6 | 8.7 | 0.00 | 0.00 | 0.00 | 66 | 1011.7 |
| 20260904135056 | 82 | 338 | 2.6 | 7.0 | 0.00 | 0.00 | 0.00 | 67 | 1011.6 |
| 20260904134516 | 82 | 338 | 3.5 | 7.8 | 0.00 | 0.00 | 0.00 | 68 | 1011.5 |
| 20260904134016 | 82 | 0 | 4.3 | 10.4 | 0.00 | 0.00 | 0.00 | 69 | 1011.4 |
| 20260904133516 | 82 | 315 | 4.3 | 9.6 | 0.00 | 0.00 | 0.00 | 69 | 1011.5 |
| 20260904133016 | 81 | 315 | 5.2 | 9.6 | 0.00 | 0.00 | 0.00 | 70 | 1011.5 |
| 20260904132516 | 81 | 315 | 3.5 | 7.8 | 0.00 | 0.00 | 0.00 | 71 | 1011.4 |
| 20260904132017 | 81 | 315 | 3.5 | 9.6 | 0.00 | 0.00 | 0.00 | 73 | 1011.5 |
| 20260904131516 | 81 | 338 | 3.5 | 7.0 | 0.00 | 0.00 | 0.00 | 74 | 1011.5 |
| 20260904131037 | 80 | 293 | 3.5 | 7.8 | 0.00 | 0.00 | 0.00 | 75 | 1011.5 |
| 20260904130516 | 80 | 293 | 5.2 | 10.4 | 0.00 | 0.00 | 0.00 | 76 | 1011.5 |
| 20260904130016 | 80 | 293 | 3.5 | 8.7 | 0.00 | 0.00 | 0.00 | 76 | 1011.6 |
| 20260904125557 | 80 | 315 | 4.3 | 9.6 | 0.00 | 0.00 | 0.00 | 77 | 1011.5 |
| 20260904125016 | 79 | 315 | 5.2 | 8.7 | 0.00 | 0.00 | 0.00 | 78 | 1011.5 |
| 20260904124557 | 79 | 338 | 1.7 | 7.0 | 0.00 | 0.00 | 0.00 | 80 | 1011.4 |
| 20260904124017 | 79 | 315 | 4.3 | 11.3 | 0.00 | 0.00 | 0.00 | 81 | 1011.4 |
| 20260904123516 | 78 | 315 | 4.3 | 8.7 | 0.00 | 0.00 | 0.00 | 81 | 1011.4 |
| 20260904123016 | 78 | 338 | 3.5 | 9.6 | 0.00 | 0.00 | 0.00 | 82 | 1011.4 |
| 20260904122517 | 78 | 315 | 4.3 | 9.6 | 0.00 | 0.00 | 0.00 | 83 | 1011.4 |
| 20260904122017 | 78 | 293 | 4.3 | 10.4 | 0.00 | 0.00 | 0.00 | 83 | 1011.3 |
| 20260904121516 | 78 | 315 | 4.3 | 8.7 | 0.00 | 0.00 | 0.00 | 84 | 1011.2 |
| 20260904121037 | 78 | 315 | 4.3 | 9.6 | 0.00 | 0.00 | 0.00 | 84 | 1011.3 |
| 20260904120536 | 78 | 315 | 3.5 | 10.4 | 0.00 | 0.00 | 0.00 | 85 | 1011.1 |
| 20260904120016 | 77 | 315 | 4.3 | 10.4 | 0.00 | 0.00 | 0.00 | 85 | 1011.2 |
| 20260904115516 | 77 | 315 | 4.3 | 10.4 | 0.00 | 0.00 | 0.00 | 86 | 1011.3 |
| 20260904115036 | 77 | 315 | 5.2 | 8.7 | 0.00 | 0.00 | 0.00 | 86 | 1011.3 |
| 20260904114517 | 77 | 315 | 4.3 | 10.4 | 0.00 | 0.00 | 0.00 | 86 | 1011.4 |
| 20260904114036 | 77 | 315 | 3.5 | 8.7 | 0.00 | 0.00 | 0.00 | 87 | 1011.3 |
| 20260904113516 | 77 | 0 | 2.6 | 7.0 | 0.00 | 0.00 | 0.00 | 87 | 1011.3 |
| 20260904113016 | 76 | 315 | 3.5 | 8.7 | 0.00 | 0.00 | 0.00 | 87 | 1011.2 |
| 20260904112517 | 76 | 315 | 3.5 | 8.7 | 0.00 | 0.00 | 0.00 | 87 | 1011.1 |
| 20260904112016 | 76 | 315 | 3.5 | 9.6 | 0.00 | 0.00 | 0.00 | 88 | 1011.1 |
| 20260904111517 | 76 | 315 | 2.6 | 7.0 | 0.00 | 0.00 | 0.00 | 88 | 1011.0 |
| 20260904111036 | 76 | 315 | 2.6 | 7.0 | 0.00 | 0.00 | 0.00 | 88 | 1011.0 |
| 20260904110516 | 76 | 315 | 2.6 | 5.2 | 0.00 | 0.00 | 0.00 | 88 | 1011.1 |
| 20260904110017 | 76 | 315 | 2.6 | 7.0 | 0.00 | 0.00 | 0.00 | 88 | 1011.1 |
| 20260904105516 | 76 | 315 | 1.7 | 5.2 | 0.00 | 0.00 | 0.00 | 88 | 1010.9 |
| 20260904105016 | 76 | 315 | 2.6 | 7.8 | 0.00 | 0.00 | 0.00 | 88 | 1010.9 |
| 20260904104516 | 76 | 338 | 2.6 | 6.1 | 0.00 | 0.00 | 0.00 | 88 | 1010.9 |
| 20260904104016 | 76 | 315 | 1.7 | 4.3 | 0.00 | 0.00 | 0.00 | 88 | 1010.8 |
| 20260904103516 | 76 | 315 | 2.6 | 7.0 | 0.00 | 0.00 | 0.00 | 88 | 1010.8 |
| 20260904103016 | 76 | 315 | 2.6 | 4.3 | 0.00 | 0.00 | 0.00 | 88 | 1010.7 |
| 20260904102516 | 76 | 270 | 1.7 | 5.2 | 0.00 | 0.00 | 0.00 | 88 | 1010.7 |
| 20260904102016 | 76 | 270 | 1.7 | 3.5 | 0.00 | 0.00 | 0.00 | 87 | 1010.7 |
| 20260904101516 | 76 | 293 | 1.7 | 3.5 | 0.00 | 0.00 | 0.00 | 87 | 1010.7 |
| 20260904101017 | 76 | 270 | 0.9 | 2.6 | 0.00 | 0.00 | 0.00 | 87 | 1010.7 |
| 20260904100516 | 76 | 0.0 | 1.7 | 0.00 | 0.00 | 0.00 | 87 | 1010.7 | |
| 20260904100016 | 76 | 270 | 0.9 | 3.5 | 0.00 | 0.00 | 0.00 | 87 | 1010.7 |
| 20260904095516 | 76 | 270 | 1.7 | 5.2 | 0.00 | 0.00 | 0.00 | 87 | 1010.7 |
| 20260904095016 | 76 | 248 | 2.6 | 7.8 | 0.00 | 0.00 | 0.00 | 86 | 1010.7 |
| 20260904094516 | 76 | 270 | 3.5 | 6.1 | 0.00 | 0.00 | 0.00 | 86 | 1010.6 |
| 20260904094016 | 76 | 293 | 2.6 | 7.0 | 0.00 | 0.00 | 0.00 | 86 | 1010.6 |
| 20260904093537 | 76 | 270 | 3.5 | 7.0 | 0.00 | 0.00 | 0.00 | 86 | 1010.6 |
| 20260904093017 | 76 | 270 | 3.5 | 7.8 | 0.00 | 0.00 | 0.00 | 85 | 1010.5 |
| 20260904092516 | 76 | 270 | 2.6 | 7.0 | 0.00 | 0.00 | 0.00 | 85 | 1010.5 |
| 20260904092016 | 76 | 270 | 2.6 | 6.1 | 0.00 | 0.00 | 0.00 | 85 | 1010.5 |
| 20260904091517 | 76 | 270 | 2.6 | 5.2 | 0.00 | 0.00 | 0.00 | 85 | 1010.6 |
| 20260904091035 | 76 | 248 | 2.6 | 6.1 | 0.00 | 0.00 | 0.00 | 84 | 1010.5 |
| 20260904090516 | 76 | 248 | 1.7 | 4.3 | 0.00 | 0.00 | 0.00 | 84 | 1010.5 |
| 20260904090017 | 77 | 270 | 1.7 | 3.5 | 0.00 | 0.00 | 0.00 | 84 | 1010.6 |
| 20260904085557 | 77 | 315 | 2.6 | 6.1 | 0.00 | 0.00 | 0.00 | 84 | 1010.5 |
| 20260904085018 | 77 | 270 | 2.6 | 5.2 | 0.00 | 0.00 | 0.00 | 84 | 1010.5 |
| 20260904084517 | 77 | 270 | 0.9 | 5.2 | 0.00 | 0.00 | 0.00 | 84 | 1010.6 |
| 20260904084017 | 77 | 315 | 2.6 | 7.0 | 0.00 | 0.00 | 0.00 | 83 | 1010.5 |
| 20260904083516 | 77 | 270 | 3.5 | 7.0 | 0.00 | 0.01 | 0.00 | 83 | 1010.4 |
| 20260904083016 | 77 | 270 | 2.6 | 6.1 | 0.00 | 0.01 | 0.00 | 83 | 1010.6 |
| 20260904082516 | 77 | 338 | 1.7 | 5.2 | 0.00 | 0.01 | 0.00 | 83 | 1010.7 |
| 20260904082016 | 77 | 270 | 0.9 | 2.6 | 0.00 | 0.01 | 0.00 | 83 | 1010.6 |
| 20260904081556 | 77 | 293 | 0.9 | 3.5 | 0.00 | 0.01 | 0.00 | 82 | 1010.6 |
| 20260904081016 | 77 | 293 | 2.6 | 5.2 | 0.00 | 0.01 | 0.00 | 82 | 1010.5 |
| 20260904080515 | 77 | 293 | 2.6 | 7.0 | 0.00 | 0.01 | 0.00 | 82 | 1010.5 |
| 20260904080016 | 77 | 293 | 1.7 | 3.5 | 0.00 | 0.01 | 0.00 | 82 | 1010.6 |
| 20260904075537 | 77 | 293 | 0.9 | 4.3 | 0.00 | 0.01 | 0.00 | 82 | 1010.6 |
| 20260904075037 | 77 | 315 | 0.9 | 2.6 | 0.00 | 0.01 | 0.00 | 82 | 1010.6 |
| 20260904074517 | 77 | 270 | 1.7 | 3.5 | 0.00 | 0.01 | 0.00 | 82 | 1010.5 |
| 20260904074016 | 77 | 315 | 2.6 | 6.1 | 0.00 | 0.01 | 0.00 | 81 | 1010.4 |
| 20260904073516 | 78 | 248 | 2.6 | 4.3 | 0.00 | 0.01 | 0.00 | 81 | 1010.2 |
| 20260904073017 | 78 | 248 | 2.6 | 4.3 | 0.00 | 0.02 | 0.00 | 81 | 1010.2 |
| 20260904072536 | 78 | 203 | 2.6 | 4.3 | 0.00 | 0.02 | 0.00 | 80 | 1010.0 |
| 20260904072016 | 78 | 203 | 0.9 | 2.6 | 0.00 | 0.03 | 0.00 | 80 | 1009.9 |
| 20260904071517 | 78 | 203 | 0.9 | 1.7 | 0.00 | 0.03 | 0.00 | 80 | 1010.0 |
| 20260904071016 | 78 | 203 | 2.6 | 6.1 | 0.00 | 0.04 | 0.00 | 79 | 1010.1 |
| 20260904070517 | 79 | 248 | 2.6 | 6.1 | 0.00 | 0.04 | 0.00 | 79 | 1010.4 |
| 20260904070016 | 79 | 270 | 2.6 | 7.0 | 0.00 | 0.05 | 0.00 | 79 | 1010.4 |
| 20260904065517 | 79 | 315 | 2.6 | 7.0 | 0.00 | 0.05 | 0.00 | 79 | 1010.2 |
| 20260904065016 | 79 | 338 | 2.6 | 6.1 | 0.00 | 0.05 | 0.00 | 79 | 1010.2 |
| 20260904064515 | 79 | 270 | 4.3 | 8.7 | 0.00 | 0.06 | 0.00 | 79 | 1010.4 |
| 20260904064017 | 80 | 248 | 5.2 | 11.3 | 0.00 | 0.06 | 0.00 | 78 | 1010.5 |
| 20260904063537 | 80 | 248 | 5.2 | 9.6 | 0.00 | 0.06 | 0.00 | 78 | 1010.6 |
| 20260904063036 | 81 | 270 | 6.1 | 13.9 | 0.00 | 0.06 | 0.00 | 78 | 1010.7 |
| 20260904062516 | 81 | 270 | 6.1 | 13.9 | 0.00 | 0.06 | 0.00 | 78 | 1010.8 |
| 20260904062015 | 81 | 270 | 5.2 | 12.2 | 0.00 | 0.07 | 0.00 | 79 | 1010.8 |
| 20260904061515 | 81 | 270 | 5.2 | 12.2 | 0.00 | 0.07 | 0.00 | 79 | 1010.7 |
| 20260904061017 | 81 | 293 | 5.2 | 10.4 | 0.00 | 0.07 | 0.00 | 80 | 1010.8 |
| 20260904060538 | 81 | 248 | 2.6 | 6.1 | 0.00 | 0.07 | 0.00 | 80 | 1010.7 |
| 20260904060015 | 81 | 248 | 3.5 | 7.8 | 0.00 | 0.07 | 0.00 | 81 | 1010.6 |
| 20260904055516 | 81 | 248 | 1.7 | 4.3 | 0.00 | 0.07 | 0.00 | 81 | 1010.6 |
| 20260904055017 | 81 | 293 | 0.9 | 3.5 | 0.00 | 0.07 | 0.00 | 82 | 1010.7 |
| 20260904054515 | 81 | 248 | 2.6 | 4.3 | 0.00 | 0.08 | 0.00 | 82 | 1011.0 |
| 20260904054015 | 81 | 248 | 2.6 | 6.1 | 0.00 | 0.08 | 0.00 | 82 | 1011.1 |
| 20260904053516 | 81 | 248 | 1.7 | 3.5 | 0.00 | 0.09 | 0.00 | 82 | 1011.2 |
| 20260904053016 | 81 | 248 | 3.5 | 6.1 | 0.00 | 0.10 | 0.00 | 83 | 1011.4 |
| 20260904052515 | 81 | 225 | 0.9 | 3.5 | 0.00 | 0.10 | 0.00 | 83 | 1011.5 |
| 20260904052036 | 81 | 248 | 1.7 | 5.2 | 0.00 | 0.10 | 0.00 | 83 | 1011.3 |
| 20260904051515 | 81 | 225 | 2.6 | 5.2 | 0.00 | 0.10 | 0.00 | 83 | 1011.3 |
| 20260904051015 | 81 | 248 | 2.6 | 6.1 | 0.00 | 0.10 | 0.00 | 83 | 1011.2 |
| 20260904050535 | 81 | 248 | 2.6 | 6.1 | 0.00 | 0.11 | 0.00 | 83 | 1011.3 |
| 20260904050015 | 81 | 248 | 2.6 | 6.1 | 0.00 | 0.13 | 0.00 | 83 | 1011.4 |
| 20260904045515 | 81 | 225 | 3.5 | 7.8 | 0.00 | 0.14 | 0.00 | 83 | 1011.4 |
| 20260904045015 | 81 | 270 | 3.5 | 8.7 | 0.00 | 0.14 | 0.00 | 82 | 1011.5 |
| 20260904044516 | 81 | 225 | 3.5 | 7.8 | 0.00 | 0.14 | 0.00 | 82 | 1011.6 |
| 20260904044017 | 81 | 225 | 3.5 | 7.8 | 0.00 | 0.14 | 0.00 | 82 | 1011.6 |
| 20260904043516 | 81 | 248 | 4.3 | 7.8 | 0.00 | 0.14 | 0.00 | 82 | 1011.7 |
| 20260904043016 | 81 | 225 | 2.6 | 6.1 | 0.00 | 0.14 | 0.00 | 82 | 1011.7 |
| 20260904042515 | 81 | 270 | 1.7 | 5.2 | 0.00 | 0.14 | 0.00 | 83 | 1011.9 |
| 20260904042015 | 81 | 248 | 2.6 | 7.8 | 0.00 | 0.14 | 0.00 | 83 | 1011.9 |
| 20260904041516 | 80 | 248 | 3.5 | 7.8 | 0.00 | 0.14 | 0.00 | 83 | 1011.9 |
| 20260904041015 | 80 | 248 | 4.3 | 8.7 | 0.00 | 0.14 | 0.00 | 83 | 1012.0 |
| 20260904040515 | 80 | 248 | 4.3 | 9.6 | 0.00 | 0.14 | 0.00 | 84 | 1012.0 |
| 20260904040015 | 80 | 248 | 2.6 | 5.2 | 0.00 | 0.14 | 0.14 | 84 | 1012.0 |
| 20260904035516 | 80 | 225 | 1.7 | 3.5 | 0.00 | 0.14 | 0.14 | 83 | 1012.0 |
| 20260904035016 | 81 | 225 | 1.7 | 4.3 | 0.00 | 0.14 | 0.14 | 83 | 1012.0 |
| 20260904034536 | 81 | 248 | 4.3 | 8.7 | 0.00 | 0.14 | 0.14 | 83 | 1012.0 |
| 20260904034016 | 81 | 225 | 3.5 | 7.0 | 0.00 | 0.14 | 0.14 | 82 | 1011.9 |
| 20260904033536 | 81 | 225 | 2.6 | 7.0 | 0.00 | 0.14 | 0.14 | 82 | 1011.8 |
| 20260904033016 | 81 | 225 | 2.6 | 6.1 | 0.00 | 0.14 | 0.14 | 81 | 1011.8 |
| 20260904032516 | 81 | 225 | 2.6 | 6.1 | 0.00 | 0.14 | 0.14 | 81 | 1011.7 |
| 20260904032056 | 81 | 225 | 2.6 | 6.1 | 0.00 | 0.14 | 0.14 | 81 | 1011.9 |
| 20260904031516 | 81 | 248 | 1.7 | 3.5 | 0.00 | 0.14 | 0.14 | 81 | 1011.8 |
| 20260904031016 | 81 | 270 | 1.7 | 4.3 | 0.00 | 0.14 | 0.14 | 81 | 1011.9 |
| 20260904030517 | 81 | 203 | 0.9 | 2.6 | 0.00 | 0.14 | 0.14 | 81 | 1012.0 |
| 20260904030016 | 81 | 270 | 1.7 | 4.3 | 0.00 | 0.14 | 0.14 | 81 | 1012.2 |
| 20260904025517 | 81 | 270 | 1.7 | 3.5 | 0.00 | 0.14 | 0.14 | 81 | 1012.3 |
| 20260904025016 | 81 | 248 | 1.7 | 4.3 | 0.00 | 0.14 | 0.14 | 80 | 1012.3 |
| 20260904024516 | 81 | 248 | 0.9 | 3.5 | 0.00 | 0.14 | 0.14 | 80 | 1012.3 |
| 20260904024017 | 81 | 0.0 | 1.7 | 0.00 | 0.14 | 0.14 | 80 | 1012.2 | |
| 20260904023516 | 81 | 248 | 0.9 | 2.6 | 0.00 | 0.14 | 0.14 | 80 | 1012.2 |
| 20260904023016 | 81 | 248 | 0.9 | 2.6 | 0.00 | 0.14 | 0.14 | 80 | 1012.3 |
| 20260904022537 | 81 | 0.0 | 0.9 | 0.00 | 0.14 | 0.14 | 80 | 1012.3 | |
| 20260904022016 | 81 | 0.0 | 2.6 | 0.00 | 0.14 | 0.14 | 80 | 1012.4 | |
| 20260904021516 | 81 | 248 | 0.9 | 2.6 | 0.00 | 0.14 | 0.14 | 80 | 1012.6 |
| 20260904021016 | 81 | 248 | 1.7 | 3.5 | 0.00 | 0.14 | 0.14 | 80 | 1012.7 |
| 20260904020516 | 81 | 248 | 0.9 | 3.5 | 0.00 | 0.14 | 0.14 | 80 | 1012.7 |
| 20260904020017 | 81 | 248 | 1.7 | 4.3 | 0.00 | 0.14 | 0.14 | 79 | 1012.8 |
| 20260904015516 | 81 | 248 | 1.7 | 3.5 | 0.00 | 0.14 | 0.14 | 79 | 1012.9 |
| 20260904015036 | 81 | 248 | 1.7 | 3.5 | 0.00 | 0.14 | 0.14 | 78 | 1012.9 |
| 20260904014515 | 81 | 248 | 1.7 | 3.5 | 0.00 | 0.14 | 0.14 | 78 | 1013.0 |
| 20260904014017 | 81 | 248 | 2.6 | 4.3 | 0.00 | 0.14 | 0.14 | 78 | 1012.9 |
| 20260904013516 | 81 | 225 | 1.7 | 3.5 | 0.00 | 0.14 | 0.14 | 78 | 1012.8 |
| 20260904013036 | 81 | 203 | 1.7 | 3.5 | 0.00 | 0.14 | 0.14 | 78 | 1012.8 |
| 20260904012516 | 81 | 225 | 1.7 | 4.3 | 0.00 | 0.14 | 0.14 | 77 | 1012.7 |
| 20260904012016 | 81 | 225 | 1.7 | 4.3 | 0.00 | 0.14 | 0.14 | 77 | 1012.7 |
| 20260904011516 | 81 | 225 | 0.9 | 3.5 | 0.00 | 0.14 | 0.14 | 77 | 1012.8 |
| 20260904011016 | 82 | 0.0 | 1.7 | 0.00 | 0.14 | 0.14 | 77 | 1012.7 | |
| 20260904010516 | 82 | 0.0 | 1.7 | 0.00 | 0.14 | 0.14 | 76 | 1012.7 | |
| 20260904010016 | 82 | 225 | 0.9 | 3.5 | 0.00 | 0.14 | 0.14 | 75 | 1012.7 |
| 20260904005515 | 82 | 0.0 | 1.7 | 0.00 | 0.14 | 0.14 | 75 | 1012.6 | |
| 20260904005015 | 82 | 0.0 | 0.0 | 0.00 | 0.14 | 0.14 | 74 | 1012.5 | |
| 20260904004515 | 82 | 0.0 | 0.0 | 0.00 | 0.14 | 0.14 | 74 | 1012.3 | |
| 20260904004015 | 83 | 0.0 | 0.0 | 0.00 | 0.14 | 0.14 | 73 | 1012.3 | |
| 20260904003515 | 83 | 0.0 | 0.0 | 0.00 | 0.14 | 0.14 | 73 | 1012.4 | |
| 20260904003015 | 83 | 0.0 | 1.7 | 0.00 | 0.14 | 0.14 | 72 | 1012.6 | |
| 20260904002515 | 83 | 225 | 0.9 | 2.6 | 0.00 | 0.14 | 0.14 | 71 | 1012.7 |
| 20260904002016 | 84 | 0.0 | 1.7 | 0.00 | 0.14 | 0.14 | 71 | 1012.5 | |
| 20260904001535 | 84 | 225 | 0.9 | 3.5 | 0.00 | 0.14 | 0.14 | 70 | 1012.4 |
| 20260904001015 | 84 | 225 | 0.9 | 3.5 | 0.00 | 0.14 | 0.14 | 69 | 1012.5 |
| 20260904000536 | 85 | 225 | 1.7 | 3.5 | 0.00 | 0.14 | 0.14 | 68 | 1012.4 |
| 20260904000016 | 85 | 225 | 0.9 | 4.3 | 0.00 | 0.14 | 0.14 | 67 | 1012.4 |
| 20260903235515 | 86 | 225 | 0.9 | 2.6 | 0.00 | 0.14 | 0.14 | 66 | 1012.2 |
| 20260903235015 | 86 | 225 | 1.7 | 3.5 | 0.00 | 0.14 | 0.14 | 64 | 1011.9 |
| 20260903234516 | 86 | 225 | 1.7 | 3.5 | 0.00 | 0.14 | 0.14 | 64 | 1011.9 |
| 20260903234016 | 86 | 270 | 1.7 | 4.3 | 0.00 | 0.14 | 0.14 | 63 | 1012.1 |
| 20260903233516 | 86 | 248 | 1.7 | 3.5 | 0.00 | 0.14 | 0.14 | 63 | 1012.0 |
| 20260903233015 | 86 | 248 | 0.9 | 3.5 | 0.00 | 0.14 | 0.14 | 63 | 1011.9 |
| 20260903232515 | 86 | 270 | 2.6 | 7.0 | 0.00 | 0.14 | 0.14 | 62 | 1011.8 |
| 20260903232015 | 87 | 270 | 1.7 | 5.2 | 0.00 | 0.14 | 0.14 | 62 | 1011.9 |
| 20260903231517 | 87 | 270 | 1.7 | 6.1 | 0.00 | 0.14 | 0.14 | 62 | 1011.9 |
| 20260903231015 | 87 | 270 | 2.6 | 6.1 | 0.00 | 0.14 | 0.14 | 62 | 1012.0 |
| 20260903230536 | 87 | 270 | 2.6 | 6.1 | 0.00 | 0.14 | 0.14 | 61 | 1012.0 |
| 20260903230015 | 87 | 248 | 1.7 | 4.3 | 0.00 | 0.14 | 0.14 | 61 | 1011.9 |
| 20260903225516 | 87 | 270 | 1.7 | 5.2 | 0.00 | 0.14 | 0.14 | 61 | 1012.0 |
| 20260903225017 | 87 | 248 | 2.6 | 5.2 | 0.00 | 0.14 | 0.14 | 61 | 1012.0 |
| 20260903224515 | 88 | 225 | 2.6 | 6.1 | 0.00 | 0.14 | 0.14 | 60 | 1012.0 |
| 20260903224015 | 88 | 248 | 1.7 | 4.3 | 0.00 | 0.14 | 0.14 | 60 | 1012.0 |
| 20260903223517 | 88 | 293 | 2.6 | 6.1 | 0.00 | 0.14 | 0.14 | 59 | 1012.1 |
| 20260903223037 | 88 | 248 | 1.7 | 4.3 | 0.00 | 0.14 | 0.14 | 59 | 1012.1 |
| 20260903222516 | 88 | 293 | 1.7 | 5.2 | 0.00 | 0.14 | 0.14 | 59 | 1012.2 |
| 20260903222015 | 89 | 270 | 2.6 | 6.1 | 0.00 | 0.14 | 0.14 | 59 | 1012.1 |
| 20260903221536 | 89 | 315 | 1.7 | 3.5 | 0.00 | 0.14 | 0.14 | 59 | 1012.1 |
| 20260903221015 | 88 | 248 | 2.6 | 6.1 | 0.00 | 0.14 | 0.14 | 59 | 1012.0 |
| 20260903220515 | 89 | 270 | 3.5 | 7.0 | 0.00 | 0.14 | 0.14 | 58 | 1012.0 |
| 20260903220015 | 89 | 315 | 2.6 | 5.2 | 0.00 | 0.14 | 0.14 | 57 | 1011.9 |
| 20260903215515 | 89 | 270 | 2.6 | 6.1 | 0.00 | 0.14 | 0.14 | 57 | 1012.0 |
| 20260903215015 | 90 | 248 | 3.5 | 7.8 | 0.00 | 0.14 | 0.14 | 56 | 1011.9 |
| 20260903214517 | 90 | 270 | 2.6 | 7.0 | 0.00 | 0.14 | 0.14 | 56 | 1011.8 |
| 20260903214018 | 90 | 293 | 3.5 | 7.8 | 0.00 | 0.14 | 0.14 | 56 | 1011.8 |
| 20260903213518 | 90 | 270 | 2.6 | 5.2 | 0.00 | 0.14 | 0.14 | 56 | 1011.9 |
| 20260903213038 | 90 | 293 | 3.5 | 7.0 | 0.00 | 0.14 | 0.14 | 56 | 1011.8 |
| 20260903212517 | 89 | 270 | 2.6 | 7.8 | 0.00 | 0.14 | 0.14 | 57 | 1011.9 |
| 20260903212057 | 89 | 270 | 4.3 | 7.0 | 0.00 | 0.14 | 0.14 | 57 | 1012.0 |
| 20260903211537 | 89 | 270 | 3.5 | 7.0 | 0.00 | 0.14 | 0.14 | 57 | 1012.0 |
| 20260903211037 | 90 | 270 | 2.6 | 7.0 | 0.00 | 0.14 | 0.14 | 56 | 1012.0 |
| 20260903210539 | 90 | 270 | 3.5 | 8.7 | 0.00 | 0.14 | 0.14 | 55 | 1012.1 |